Regional Weather Roundup
Issued by NWS Newport/Morehead, NC

Current Version | Previous Version | Text Only | Print | Product List | Glossary On
Versions: 1 2 3 4 5 6 7 8 9 10 11 12 13 14 15 16 17 18 19 20 21 22 23 24 25 26 27 28 29 30 31 32 33 34 35 36 37 38 39 40 41 42 43 44 45 46 47 48 49 50
000
ASUS42 KMHX 230213
RWRMHX
WEATHER ROUNDUP FOR EASTERN NORTH CAROLINA
NATIONAL WEATHER SERVICE NEWPORT/MOREHEAD CITY NC
900 PM EST MON JAN 22 2018

NOTE: "FAIR" INDICATES FEW OR NO CLOUDS BELOW 12,000 FEET
WITH NO SIGNIFICANT WEATHER AND/OR OBSTRUCTIONS TO VISIBILITY

NCZ015>017-031-032-045>047-102-103-230300-
NORTH COAST

CITY           SKY/WX    TMP DP  RH WIND       PRES   REMARKS
EDENTON        FAIR      55  49  81 S6        30.09F
ELIZABETH CITY FAIR      53  53 100 S6        30.09F
KITTY HAWK     FAIR      54  49  82 CALM      30.08F
MANTEO         CLOUDY    48  46  91 SW5       30.11S

$$

NCZ045>047-081-094-103-104-230300-
CENTRAL COAST

CITY           SKY/WX    TMP DP  RH WIND       PRES   REMARKS
FRISCO         NOT AVBL

$$

NCZ095-097-098-100-101-230300-
SOUTHERN COAST

CITY           SKY/WX    TMP DP  RH WIND       PRES   REMARKS
BEAUFORT       CLOUDY    58  57  97 S7        30.10F
CEDAR ISLAND   NOT AVBL
JACKSONVILLE   FAIR      55  55 100 SE3       30.07F
PINEY ISLAND   NOT AVBL
WILMINGTON     FAIR      55  55 100 SE6       30.08F


$$

NCZ011>013-027>030-043-044-078>080-089-090>093-098-230300-
COASTAL PLAIN

CITY           SKY/WX    TMP DP  RH WIND       PRES   REMARKS
AHOSKIE        FAIR      52  48  88 S3        30.07S
CLINTON        FAIR      58  58 100 CALM      30.07R
ELIZABETHTOWN  NOT AVBL
GOLDSBORO      FAIR      58  56  91 S5        30.05S
GREENVILLE     FAIR      59  54  82 S6        30.08F
HAVELOCK       NOT AVBL
KENANSVILLE    FAIR      57  55  94 S3        30.08S
KINSTON        MOCLDY    57  55  94 S5        30.08F
NEW BERN       FAIR      58  55  90 S7        30.09F
RICHLANDS      FAIR      58  56  93 SE7       30.07F
ROCKY MOUNT    FAIR      56  51  84 SE5       30.06F
WASHINGTON     FAIR      56  52  85 CALM      30.08S
WHITEVILLE     MOCLDY    59  58  97 SE3       30.07S

$$

AMZ130-135-150-152-154-156-158-170-250-252-270-ANZ085-086-088-633-658-670-230300-
MARINE OBSERVATIONS

STATION/POSITION TIME  TEMP    WIND        PRES    WAVE   SWELL
                       AIR SEA DIR/SP/G            HT/PER HT/PER
                 (UTC) (F)     (DEG/KT/KT) (MB)    (FT/S) (FT/S)
CHESAPEAKE LIGHT NOT AVBL
64 E VA BEACH    0150   63 58  170/ 14/ 16 1019.5    1/ 9   2/ 9
DUCK             0142   46 42  150/ 12/ 13 1018.4
2 E DUCK         0130      41                N/A     1/10
OREGON INLET     0142   56 44  150/  5/  7 1019.3
13E OREGON INLT  0148      42                N/A     1/10   2/10
HATTERAS CG      0142   64 52  170/  7/ 12 1018.8
DIAMOND BUOY     0200   70 70  180/ 14/ 17 1019.8
CAPE LOOKOUT     0200          170/  7/  8 1019.6
BEAUFORT LAB     0142   55 48  170/  4/  5 1019.5
30 SE NEW RVR IN 0108   64 58  180/  8/ 12 1019.7
30 SE NEW RVR IN 0200      58                N/A     2/ 4
27 SE WRIGHTSVLE 0108   65 63  180/  8/ 12 1019.5
5 SE WRIGHTSVLE  0108   51 46  130/  4/  6 1019.2
225 S CAPE HAT   0150   69 70  130/ 12/ 16 1022.6    2/ 9   2/ 9
41 SE CHARLESTON 0200   71 70  160/ 16/ 19 1017.9

$$



USA.gov is the U.S. government's official web portal to all federal, state and local government web resources and services.